• In Portugal
  • List of Countries
  • For 7 days
  • Water Temperature
  • Satellite Maps
  • Weather Map
  • Weather Widgets
  • user-avatar
    Login

    Hourly Weather Jalapa

    Today, 23 August, Wednesday

    Time Temperature Precipitation Wind Pressure Humidity
    00:00 +16°C° 0.9 mm 0 mps 642 mmHg 94%
    01:00 +16°C° 0.7 mm 0 mps 641 mmHg 94%
    02:00 +18°C° 0.7 mm 1 mps 641 mmHg 95%
    03:00 +16°C° 0.7 mm 1 mps 641 mmHg 95%
    04:00 +16°C° 0.1 mm 1 mps 641 mmHg 95%
    05:00 +16°C° 0.1 mm 1 mps 641 mmHg 95%
    06:00 +16°C° 0.1 mm 1 mps 641 mmHg 94%
    07:00 +20°C° 0 mm 1 mps 642 mmHg 86%
    08:00 +20°C° 0 mm 0 mps 643 mmHg 78%
    09:00 +23°C° 0 mm 0 mps 644 mmHg 69%
    10:00 +24°C° 0.6 mm 0 mps 644 mmHg 67%
    11:00 +27°C° 0.6 mm 1 mps 644 mmHg 66%
    12:00 +28°C° 0.6 mm 1 mps 644 mmHg 64%
    13:00 +27°C° 1.5 mm 1 mps 643 mmHg 66%
    14:00 +27°C° 1.5 mm 1 mps 642 mmHg 68%
    15:00 +26°C° 1.5 mm 1 mps 641 mmHg 70%
    16:00 +25°C° 1.9 mm 1 mps 641 mmHg 75%
    17:00 +23°C° 1.9 mm 1 mps 640 mmHg 80%
    18:00 +22°C° 1.9 mm 1 mps 640 mmHg 85%
    19:00 +21°C° 2.6 mm 1 mps 640 mmHg 88%
    20:00 +18°C° 2.6 mm 0 mps 641 mmHg 90%
    21:00 +17°C° 2.6 mm 0 mps 641 mmHg 92%
    22:00 +17°C° 1.9 mm 0 mps 641 mmHg 93%
    23:00 +19°C° 1.9 mm 1 mps 641 mmHg 93%

    Tomorrow, 24 August, Thursday

    Time Temperature Precipitation Wind Pressure Humidity
    00:00 +19°C° 1.9 mm 1 mps 641 mmHg 93%
    01:00 +18°C° 1.3 mm 1 mps 640 mmHg 94%
    02:00 +18°C° 1.3 mm 1 mps 640 mmHg 94%
    03:00 +18°C° 1.3 mm 1 mps 639 mmHg 94%
    04:00 +18°C° 0.2 mm 1 mps 639 mmHg 94%
    05:00 +18°C° 0.2 mm 1 mps 639 mmHg 94%
    06:00 +16°C° 0.2 mm 1 mps 639 mmHg 94%
    07:00 +18°C° 0 mm 0 mps 641 mmHg 86%
    08:00 +21°C° 0 mm 0 mps 642 mmHg 78%
    09:00 +23°C° 0 mm 0 mps 643 mmHg 69%
    10:00 +24°C° 0.5 mm 0 mps 643 mmHg 66%
    11:00 +27°C° 0.5 mm 1 mps 643 mmHg 63%
    12:00 +28°C° 0.5 mm 1 mps 642 mmHg 60%
    13:00 +28°C° 1.3 mm 1 mps 642 mmHg 62%
    14:00 +28°C° 1.3 mm 1 mps 641 mmHg 64%
    15:00 +27°C° 1.3 mm 2 mps 640 mmHg 66%
    16:00 +25°C° 2 mm 1 mps 640 mmHg 72%
    17:00 +24°C° 2 mm 1 mps 640 mmHg 79%
    18:00 +22°C° 2 mm 1 mps 639 mmHg 85%
    19:00 +21°C° 2.9 mm 1 mps 640 mmHg 87%
    20:00 +20°C° 2.9 mm 1 mps 640 mmHg 90%
    21:00 +18°C° 2.9 mm 0 mps 641 mmHg 93%
    22:00 +17°C° 2.4 mm 0 mps 641 mmHg 93%
    23:00 +17°C° 2.4 mm 0 mps 641 mmHg 93%

    Day after tomorrow, 25 August, Friday

    Time Temperature Precipitation Wind Pressure Humidity
    00:00 +17°C° 2.4 mm 0 mps 641 mmHg 93%
    01:00 +17°C° 1.6 mm 0 mps 640 mmHg 94%
    02:00 +17°C° 1.6 mm 0 mps 640 mmHg 94%
    03:00 +17°C° 1.6 mm 0 mps 640 mmHg 94%
    04:00 +17°C° 1.1 mm 0 mps 640 mmHg 94%
    05:00 +16°C° 1.1 mm 0 mps 640 mmHg 94%
    06:00 +16°C° 1.1 mm 0 mps 640 mmHg 95%
    07:00 +18°C° 0.4 mm 0 mps 641 mmHg 91%
    08:00 +19°C° 0.4 mm 0 mps 642 mmHg 87%
    09:00 +20°C° 0.4 mm 0 mps 642 mmHg 83%
    10:00 +23°C° 0.5 mm 1 mps 643 mmHg 79%
    11:00 +25°C° 0.5 mm 1 mps 643 mmHg 74%
    12:00 +26°C° 0.5 mm 1 mps 643 mmHg 69%
    13:00 +25°C° 1.1 mm 1 mps 642 mmHg 72%
    14:00 +25°C° 1.1 mm 2 mps 641 mmHg 76%
    15:00 +24°C° 1.1 mm 2 mps 640 mmHg 80%
    16:00 +23°C° 1.6 mm 1 mps 640 mmHg 84%
    17:00 +22°C° 1.6 mm 1 mps 640 mmHg 87%
    18:00 +21°C° 1.6 mm 1 mps 640 mmHg 91%
    19:00 +20°C° 1.2 mm 1 mps 641 mmHg 92%
    20:00 +19°C° 1.2 mm 1 mps 641 mmHg 93%
    21:00 +19°C° 1.2 mm 1 mps 641 mmHg 94%
    22:00 +19°C° 0.5 mm 1 mps 641 mmHg 94%
    23:00 +18°C° 0.5 mm 1 mps 641 mmHg 94%

    26 August, Saturday

    Time Temperature Precipitation Wind Pressure Humidity
    00:00 +16°C° 0.5 mm 0 mps 641 mmHg 94%
    01:00 +16°C° 0.6 mm 0 mps 641 mmHg 94%
    02:00 +16°C° 0.6 mm 0 mps 641 mmHg 94%
    03:00 +16°C° 0.6 mm 0 mps 640 mmHg 94%
    04:00 +16°C° 0.2 mm 0 mps 640 mmHg 94%
    05:00 +15°C° 0.2 mm 0 mps 640 mmHg 94%
    06:00 +15°C° 0.2 mm 0 mps 641 mmHg 94%
    07:00 +19°C° 0 mm 1 mps 642 mmHg 88%
    08:00 +21°C° 0 mm 1 mps 642 mmHg 81%
    09:00 +23°C° 0 mm 1 mps 643 mmHg 74%
    10:00 +24°C° 0.3 mm 1 mps 643 mmHg 72%
    11:00 +25°C° 0.3 mm 1 mps 643 mmHg 70%
    12:00 +26°C° 0.3 mm 2 mps 643 mmHg 67%
    13:00 +25°C° 0.9 mm 2 mps 642 mmHg 70%
    14:00 +25°C° 0.9 mm 2 mps 642 mmHg 73%
    15:00 +24°C° 0.9 mm 2 mps 641 mmHg 76%
    16:00 +23°C° 1.2 mm 2 mps 641 mmHg 81%
    17:00 +22°C° 1.2 mm 1 mps 641 mmHg 86%
    18:00 +20°C° 1.2 mm 1 mps 641 mmHg 90%
    19:00 +20°C° 0.6 mm 1 mps 641 mmHg 92%
    20:00 +19°C° 0.6 mm 1 mps 641 mmHg 93%
    21:00 +19°C° 0.6 mm 1 mps 641 mmHg 95%
    22:00 +18°C° 0.2 mm 1 mps 641 mmHg 95%
    23:00 +18°C° 0.2 mm 1 mps 641 mmHg 95%

    27 August, Sunday

    Time Temperature Precipitation Wind Pressure Humidity
    00:00 +16°C° 0.2 mm 0 mps 641 mmHg 95%
    01:00 +15°C° 0 mm 0 mps 640 mmHg 95%
    02:00 +15°C° 0 mm 0 mps 640 mmHg 95%
    03:00 +15°C° 0 mm 0 mps 640 mmHg 95%
    04:00 +15°C° 0 mm 0 mps 640 mmHg 94%
    05:00 +15°C° 0 mm 0 mps 640 mmHg 94%
    06:00 +15°C° 0 mm 0 mps 640 mmHg 93%
    07:00 +19°C° 0 mm 1 mps 641 mmHg 84%
    08:00 +21°C° 0 mm 1 mps 642 mmHg 75%
    09:00 +24°C° 0 mm 1 mps 643 mmHg 66%
    10:00 +25°C° 0.2 mm 1 mps 643 mmHg 64%
    11:00 +26°C° 0.2 mm 2 mps 643 mmHg 61%
    12:00 +27°C° 0.2 mm 2 mps 643 mmHg 59%
    13:00 +27°C° 0.7 mm 2 mps 642 mmHg 61%
    14:00 +26°C° 0.7 mm 2 mps 642 mmHg 63%
    15:00 +26°C° 0.7 mm 2 mps 641 mmHg 65%
    16:00 +25°C° 0.6 mm 2 mps 641 mmHg 70%
    17:00 +23°C° 0.6 mm 1 mps 640 mmHg 75%
    18:00 +22°C° 0.6 mm 1 mps 640 mmHg 80%
    19:00 +21°C° 0.4 mm 1 mps 640 mmHg 84%
    20:00 +20°C° 0.4 mm 1 mps 640 mmHg 88%
    21:00 +16°C° 0.4 mm 0 mps 641 mmHg 92%
    22:00 +16°C° 0.1 mm 0 mps 640 mmHg 93%
    23:00 +16°C° 0.1 mm 0 mps 640 mmHg 94%

    28 August, Monday

    Time Temperature Precipitation Wind Pressure Humidity
    00:00 +16°C° 0.1 mm 0 mps 640 mmHg 94%
    01:00 +15°C° 0 mm 0 mps 640 mmHg 94%
    02:00 +16°C° 0 mm 1 mps 640 mmHg 94%
    03:00 +16°C° 0 mm 1 mps 639 mmHg 94%
    04:00 +16°C° 0 mm 1 mps 640 mmHg 94%
    05:00 +15°C° 0 mm 1 mps 640 mmHg 93%
    06:00 +15°C° 0 mm 1 mps 640 mmHg 93%
    07:00 +19°C° 0 mm 1 mps 641 mmHg 83%
    08:00 +22°C° 0 mm 1 mps 642 mmHg 72%
    09:00 +25°C° 0 mm 1 mps 643 mmHg 62%
    10:00 +26°C° 0 mm 1 mps 643 mmHg 56%
    11:00 +28°C° 0 mm 1 mps 643 mmHg 49%
    12:00 +29°C° 0 mm 2 mps 643 mmHg 43%
    13:00 +29°C° 0.1 mm 2 mps 642 mmHg 45%
    14:00 +28°C° 0.1 mm 2 mps 642 mmHg 46%
    15:00 +28°C° 0.1 mm 2 mps 641 mmHg 48%
    16:00 +26°C° 0.3 mm 2 mps 641 mmHg 56%
    17:00 +24°C° 0.3 mm 2 mps 641 mmHg 64%
    18:00 +22°C° 0.3 mm 1 mps 640 mmHg 72%
    19:00 +21°C° 0.6 mm 1 mps 641 mmHg 78%
    20:00 +20°C° 0.6 mm 1 mps 641 mmHg 84%
    21:00 +18°C° 0.6 mm 1 mps 641 mmHg 89%
    22:00 +18°C° 0.2 mm 1 mps 641 mmHg 90%
    23:00 +16°C° 0.2 mm 0 mps 641 mmHg 91%
    Show more